www.pogodaiklimat.ru

Погода и климат >> Архив погоды >> Россия >> Рязанская область >> Рязань


АРХИВ ПОГОДЫ в Рязани

Время (UTC), дата Ветер
(напр.,м/с)
 
Видим.   Явления Облачность Т
(С)
Тd
(С)
f
(%)
Тe
(С)
Тes
(С)
Комфортность P
(гПа)
Po
(гПа)
Тmin
(С)
Tmax
(С)
R
(мм)
R24
(мм)
S
(см)
18 18.06 штиль 0 20 км 4/0
[Ac As]
+18.6 +14.8 79 +19 +19 тепло 1012.3 994.0
21 18.06 штиль 0 20 км 3/0
[Ac As]
+15.2 +13.8 91 +15 +15 по сезону 1013.5 994.9
00 19.06 штиль 0 10 км 4/0
[Ac As]
+13.8 +13.4 97 +13 +13 по сезону 1014.3 995.6
03 19.06 С 1 20 км ясно +17.7 +14.8 83 +19 +21 тепло 1014.7 996.3 +13.0
06 19.06 СЗ 1 20 км 1/0
[Ac cast]
+23.9 +14.3 55 +26 +37 жарко 1015.0 997.0
09 19.06 СЗ 2 20 км 3/3 1000 м
[Cu hum]
+26.9 +7.4 29 +27 +38 жарко 1015.1 997.2
12 19.06 СЗ 2 20 км 3/3 1000 м
[Cu hum]
+27.7 +7.0 27 +27 +35 жарко 1014.9 997.0
15 19.06 С 2 20 км 4/0
[Ac cuf Ci fib]
+27.0 +6.6 27 +26 +29 жарко 1014.5 996.6 +28.7
18 19.06 штиль 0 20 км 8/0
[Cs]
+19.0 +12.0 64 +20 +20 тепло 1015.3 997.0
21 19.06 штиль 0 20 км 8/0
[As trans Ci fib]
+15.0 +12.6 86 +15 +15 по сезону 1016.3 997.7
00 20.06 штиль 0 10 км 3/0
[Ac lent]
+12.8 +11.9 94 +12 +12 по сезону 1017.4 998.6
03 20.06 штиль 0 20 км 4/0
[Ac lent Ci fib]
+18.8 +13.1 69 +20 +21 тепло 1017.7 999.3 +12.4
06 20.06 С 1 20 км ясно +25.8 +10.7 39 +27 +38 жарко 1017.5 999.5
09 20.06 СЗ 1 20 км 6/6 600 м
[Cu hum]
+27.9 +8.0 29 +28 +35 жарко 1017.0 999.1
12 20.06 З 2 20 км 5/5 600 м
[Cu hum]
+29.2 +8.3 27 +29 +35 жарко 1016.5 998.8
15 20.06 ЮЗ 1 20 км 3/3 600 м
[Cu hum]
+28.9 +7.4 26 +28 +31 жарко 1016.0 998.2 +30.1
18 20.06 штиль 0 20 км 1/0
[Ac trans]
+20.2 +11.8 58 +22 +22 комфорт 1016.7 998.4
21 20.06 штиль 0 20 км ясно +16.2 +11.7 75 +16 +16 по сезону 1017.5 999.0
00 21.06 ЮВ 1 20 км 9/0
[Ac trans]
+16.8 +13.0 78 +18 +18 тепло 1018.2 999.6
03 21.06 штиль 0 20 км 6/0
[Ac trans]
+18.8 +14.7 77 +20 +21 тепло 1018.7 1000.3 +16.0
06 21.06 ЮЗ 1 20 км 6/0
[Ci fib]
+27.8 +11.0 35 +29 +39 жарко 1018.1 1000.2
09 21.06 Ю 2 20 км 9/5 600 м
[Cu hum Ci fib]
+29.2 +8.1 27 +29 +35 жарко 1018.0 1000.2
12 21.06 З 2 20 км 8/4 600 м
[Cu hum Ci fib]
+30.4 +6.9 23 +29 +35 жарко 1017.4 999.6
15 21.06 ЮЗ 1 20 км 6/5 600 м
[Cu hum Ci fib]
+29.0 +8.5 28 +29 +30 жарко 1016.5 998.8 +31.2
18 21.06 штиль 0 20 км 3/0
[Ci fib]
+21.8 +13.7 60 +25 +25 комфорт 1016.7 998.5
21 21.06 штиль 0 20 км ясно +17.9 +13.1 73 +18 +18 тепло 1017.3 998.8
00 22.06 штиль 0 20 км 4/0
[Ci fib]
+16.8 +13.8 82 +17 +17 тепло 1017.6 999.1
03 22.06 Ю 1 20 км 6/0
[Ac As Ci fib]
+21.0 +13.4 62 +25 +26 комфорт 1017.5 999.2 +16.6
06 22.06 ЮЗ 2 20 км 4/0
[Ac lent Ci fib]
+28.0 +13.2 40 +30 +37 жарко 1016.8 999.0
09 22.06 ЮЗ 4 20 км 6/0
[Ac cast Cc]
+31.2 +10.5 28 +31 +38 жарко 1016.7 999.1
12 22.06 ЮЗ 3
{10}
20 км 8/4 600 м
[Cu med, cong Ac lent Ci fib]
+31.9 +9.2 25 +31 +35 жарко 1016.3 998.7
15 22.06 ЮЗ 3 20 км 4/3 600 м
[Cu hum Ci fib]
+31.3 +8.9 25 +30 +32 жарко 1015.3 997.7 +32.7
18 22.06 Ю 1 20 км 4/0
[Cc]
+23.7 +13.5 53 +26 +26 жарко 1015.9 997.8
21 22.06 штиль 0 20 км 3/0
[Ci fib]
+19.2 +13.1 68 +20 +20 тепло 1016.3 997.9
00 23.06 штиль 0 20 км 8/0
[Ac cast Ci fib]
+17.7 +14.6 82 +18 +18 тепло 1017.0 998.6
03 23.06 С 2 20 км 4/0
[Ac cast]
+21.2 +17.2 78 +25 +26 комфорт 1017.9 999.6 +17.6
06 23.06 С 2 20 км 3/0
[Ac trans]
+24.1 +18.6 71 +29 +37 душно 1018.3 1000.3
09 23.06 С 1 20 км 4/0
[Ci fib]
+27.4 +16.4 51 +31 +48 душно 1018.2 1000.3
12 23.06 С 2 20 км 6/3 600 м
[Cu hum Ci fib]
+29.4 +15.2 42 +32 +40 душно 1017.8 1000.1
15 23.06 С 2 20 км 6/0
[Ci fib]
+28.3 +15.0 44 +31 +34 душно 1017.2 999.4 +30.0
18 23.06 С 2 20 км 6/0
[Ac trans]
+24.6 +14.1 52 +27 +27 жарко 1017.6 999.6
21 23.06 С 2 20 км 10/0
[Ac As]
+21.7 +11.1 51 +24 +24 комфорт 1018.5 1000.3
00 24.06 В 2
{10}
4000 м слаб. ливневой дождь {гроза} 10/8 300 м
[Cb calv Ac trans]
+14.9 +13.5 91 +15 +15 по сезону 1020.2 1001.5
03 24.06 СВ 1 20 км {ливн. осадки} 6/0
[Ac trans]
+16.3 +13.9 86 +17 +18 по сезону 1020.6 1002.0 +14.4 6
06 24.06 С 1 20 км 9/4 600 м
[Sc Ac trans]
+18.3 +13.5 74 +20 +23 тепло 1021.5 1003.0
09 24.06 СВ 2 20 км ясно +22.8 +10.9 47 +25 +41 комфорт 1020.9 1002.7
12 24.06 С 3 20 км ясно +25.0 +8.6 35 +25 +35 комфорт 1020.5 1002.4
15 24.06 С 3 20 км 4/4 600 м
[]
+24.7 +5.8 30 +25 +26 комфорт 1020.3 1002.2 +25.9
18 24.06 СВ 1 20 км 5/0
[As op Cs]
+20.7 +4.7 35 +22 +22 комфорт 1021.9 1003.5
21 24.06 штиль 0 20 км ясно +13.8 +7.4 65 +14 +14 по сезону 1023.7 1004.8
00 25.06 С 2 20 км ясно +14.9 +5.6 54 +15 +15 по сезону 1024.4 1005.6
03 25.06 С 2 20 км 9/0
[Cu hum]
+15.0 +6.5 57 +15 +16 по сезону 1025.8 1007.0 +12.7
06 25.06 С 3 20 км 9/0
[Cs]
+18.4 +6.8 47 +19 +25 по сезону 1026.5 1007.9
09 25.06 С 3 20 км 9/6 600 м
[Cu hum Ci fib]
+22.6 +4.6 31 +23 +24 комфорт 1025.8 1007.4
12 25.06 СЗ 3 20 км 8/5 600 м
[Cu hum Ci fib]
+24.6 +2.7 24 +24 +28 комфорт 1025.1 1006.9
15 25.06 С 2 20 км 9/0
[Ac lent Ci fib]
+22.0 +2.6 28 +22 +23 комфорт 1025.1 1006.7 +24.6

 

Местоположение метеостанции Рязань (Рязанская область, Россия): широта 54.63 долгота 39.70 высота над уровнем моря 157 м.

В архиве по умолчанию представлена погода в Рязани за последнюю неделю. Архивные данные за месяц целиком и за предыдущие месяцы, начиная с января 2011 года, Вы можете получить, выбрав интересующий диапазон дат из раскрывающегося списка и нажав кнопку "Ввод!".


*Определитесь, кто Вы:
робот инопланетянин человек

Внимание! Время в таблицах - всемирное. Для получения местного времени необходимо прибавить поправку, которая равна 3 ч.

Смотрите также архив погоды в соседних городах и на ближайших метеорологических станциях:

Погода в Рыбном (Рязанская область, Россия) (13 км)
Погода в Старожилово (Рязанская область, Россия) (43 км)
Погода в Зарайске (Московская область, Россия) (57 км)
Погода в Луховицах (Московская область, Россия) (58 км)
Погода в Михайлове (Рязанская область, Россия) (62 км)
Погода в Серебряных Прудах (Московская область, Россия) (66 км)
Погода в Туме (Рязанская область, Россия) (78 км)
Погода в Коломне (Московская область, Россия) (83 км)
Погода в Шилово (Рязанская область, Россия) (85 км)
Погода в Егорьевске (Московская область, Россия) (94 км)

Пояснения к столбцам:

Ветер - указаны скорость ветра в м/с - средняя за 10 мин, порывы в срок и между сроками (в фигурных скобках) и направление, откуда дует ветер: С - северный, СВ - северо-восточный, В - восточный, ЮВ - юго-восточный, Ю - южный, ЮЗ - юго-западный, З - западный, СЗ - северо-западный.
Видимость - горизонтальная дальность видимости в метрах или километрах. При видимости от 1 до 10 км при отсутствии осадков обычно наблюдается дымка, при ухудшении видимости до 1 км и менее - туман. В сухую погоду видимость может ухудшаться дымом, пылью или мглою.
Явления - указаны атмосферные явления, наблюдавшиеся в срок или в последний час перед сроком; фигурными скобками обозначены явления, наблюдавшиеся между сроками (за 1-3 часа до срока); квадратными скобками обозначены град или гололедные отложения с указанием их диаметра в мм.
Облачность - указаны через наклонную черту общая и нижняя облачность в баллах и высота нижней границы облаков в метрах; квадратными скобками обозначены формы облаков: Ci - перистые, Cs - перисто-слоистые, Cc - перисто-кучевые, Ac - высококучевые, As - высокослоистые, Sc - слоисто-кучевые, Ns - слоисто-дождевые, Cu - кучевые, Cb - кучево-дождевые. Подробнее классификацию облаков см. в Атласе облаков (PDF).
T - Температура воздуха - температура, измеренная на высоте 2 м над землей.
Td - Температура точки росы - температура, при понижении до которой содержащийся в воздухе водяной пар достигнет насыщения.
f - Относительная влажность воздуха - влажноcть воздуха, измеренная на высоте 2 м над землей.
Te - Эффективная температура - температура, которую ощущает одетый по сезону человек в тени. Характеристика душности погоды. При расчете учитывается влияние влажности воздуха и скорости ветра на теплоощущения человека.
Tes - Эффективная температура на солнце - температура, которую ощущает человек, с поправкой на солнечный нагрев. Характеристика знойности погоды. Зависит от высоты солнца над горизонтом, облачности и скорости ветра. Ночью, в пасмурную погоду, а также при ветре 12 м/с и более поправка равна нулю.
P - Атмосферное давление - приведенное к уровню моря атмосферное давление.
Po - Атмосферное давление - измеренное на уровне метеостанции атмосферное давление.
Tmin - Минимальная температура - минимум температуры воздуха на высоте 2 м над землей.
Tmax - Максимальная температура - максимум температуры воздуха на высоте 2 м над землей.
R - Количество осадков - Количество выпавших осадков за период времени, мм. При наведении курсора мыши на число - период времени, за который выпало указанное количество осадков.
R24 - Количество осадков - Количество выпавших осадков за 24 часа, мм.
S - Снежный покров - Высота снежного покрова, см. При наведении курсора мыши на число - состояние снежного покрова и степень покрытия местности в баллах.